EN

Hourly Weather Labuzy

Today, 1 August, Sunday

Time Temperature Precipitation Wind Pressure Humidity
00:00 +18°C° 0.4 mm 4 mps 740 mmHg 92%
01:00 +18°C° 0.4 mm 4 mps 740 mmHg 94%
02:00 +17°C° 0.4 mm 4 mps 740 mmHg 96%
03:00 +17°C° 0.1 mm 3 mps 740 mmHg 97%
04:00 +17°C° 0.1 mm 3 mps 740 mmHg 97%
05:00 +17°C° 0.1 mm 3 mps 740 mmHg 97%
06:00 +18°C° 0 mm 3 mps 740 mmHg 92%
07:00 +19°C° 0 mm 3 mps 741 mmHg 87%
08:00 +21°C° 0 mm 3 mps 741 mmHg 82%
09:00 +24°C° 0 mm 3 mps 741 mmHg 72%
10:00 +25°C° 0 mm 3 mps 741 mmHg 62%
11:00 +27°C° 0 mm 3 mps 741 mmHg 53%
12:00 +27°C° 0 mm 2 mps 741 mmHg 49%
13:00 +28°C° 0 mm 2 mps 741 mmHg 46%
14:00 +29°C° 0 mm 2 mps 741 mmHg 43%
15:00 +28°C° 0 mm 2 mps 741 mmHg 47%
16:00 +28°C° 0 mm 2 mps 740 mmHg 50%
17:00 +27°C° 0 mm 2 mps 740 mmHg 54%
18:00 +26°C° 0 mm 2 mps 740 mmHg 59%
19:00 +24°C° 0 mm 2 mps 739 mmHg 64%
20:00 +23°C° 0 mm 2 mps 739 mmHg 69%
21:00 +21°C° 0.3 mm 2 mps 739 mmHg 76%
22:00 +20°C° 0.3 mm 2 mps 739 mmHg 83%
23:00 +19°C° 0.3 mm 2 mps 739 mmHg 90%

Tomorrow, 2 August, Monday

Time Temperature Precipitation Wind Pressure Humidity
00:00 +19°C° 1 mm 2 mps 739 mmHg 92%
01:00 +18°C° 1 mm 2 mps 738 mmHg 94%
02:00 +19°C° 1 mm 1 mps 738 mmHg 96%
03:00 +18°C° 0.5 mm 2 mps 738 mmHg 96%
04:00 +18°C° 0.5 mm 2 mps 737 mmHg 97%
05:00 +18°C° 0.5 mm 2 mps 737 mmHg 97%
06:00 +19°C° 0.2 mm 2 mps 737 mmHg 95%
07:00 +19°C° 0.2 mm 2 mps 737 mmHg 93%
08:00 +20°C° 0.2 mm 2 mps 737 mmHg 91%
09:00 +20°C° 0.7 mm 3 mps 737 mmHg 91%
10:00 +20°C° 0.7 mm 4 mps 737 mmHg 91%
11:00 +19°C° 0.7 mm 5 mps 737 mmHg 91%
12:00 +17°C° 0.4 mm 5 mps 738 mmHg 92%
13:00 +16°C° 0.4 mm 5 mps 738 mmHg 92%
14:00 +15°C° 0.4 mm 5 mps 739 mmHg 93%
15:00 +16°C° 0 mm 5 mps 739 mmHg 90%
16:00 +17°C° 0 mm 5 mps 739 mmHg 86%
17:00 +17°C° 0 mm 5 mps 740 mmHg 83%
18:00 +18°C° 0.1 mm 4 mps 740 mmHg 86%
19:00 +17°C° 0.1 mm 3 mps 740 mmHg 88%
20:00 +16°C° 0.1 mm 3 mps 740 mmHg 91%
21:00 +16°C° 0 mm 3 mps 741 mmHg 92%
22:00 +16°C° 0 mm 3 mps 741 mmHg 94%
23:00 +14°C° 0 mm 3 mps 741 mmHg 95%

Day after tomorrow, 3 August, Tuesday

Time Temperature Precipitation Wind Pressure Humidity
00:00 +15°C° 0 mm 2 mps 741 mmHg 95%
01:00 +15°C° 0 mm 2 mps 741 mmHg 96%
02:00 +14°C° 0 mm 2 mps 742 mmHg 96%
03:00 +14°C° 0 mm 2 mps 742 mmHg 96%
04:00 +14°C° 0 mm 2 mps 742 mmHg 96%
05:00 +14°C° 0 mm 2 mps 743 mmHg 95%
06:00 +14°C° 0 mm 3 mps 743 mmHg 90%
07:00 +16°C° 0 mm 3 mps 743 mmHg 86%
08:00 +17°C° 0 mm 4 mps 743 mmHg 81%
09:00 +19°C° 0.1 mm 4 mps 744 mmHg 71%
10:00 +20°C° 0.1 mm 5 mps 744 mmHg 62%
11:00 +21°C° 0.1 mm 5 mps 744 mmHg 52%
12:00 +22°C° 0 mm 5 mps 744 mmHg 51%
13:00 +22°C° 0 mm 5 mps 744 mmHg 49%
14:00 +22°C° 0 mm 5 mps 744 mmHg 48%
15:00 +22°C° 0 mm 5 mps 744 mmHg 51%
16:00 +21°C° 0 mm 4 mps 744 mmHg 55%
17:00 +21°C° 0 mm 4 mps 744 mmHg 58%
18:00 +19°C° 0 mm 3 mps 744 mmHg 63%
19:00 +18°C° 0 mm 3 mps 745 mmHg 68%
20:00 +17°C° 0 mm 2 mps 745 mmHg 72%
21:00 +16°C° 0 mm 2 mps 745 mmHg 74%
22:00 +15°C° 0 mm 2 mps 745 mmHg 76%
23:00 +15°C° 0 mm 2 mps 745 mmHg 77%

4 August, Wednesday

Time Temperature Precipitation Wind Pressure Humidity
00:00 +15°C° 0 mm 2 mps 746 mmHg 77%
01:00 +15°C° 0 mm 2 mps 746 mmHg 77%
02:00 +15°C° 0 mm 2 mps 746 mmHg 77%
03:00 +14°C° 0 mm 2 mps 746 mmHg 76%
04:00 +14°C° 0 mm 2 mps 746 mmHg 76%
05:00 +14°C° 0 mm 2 mps 746 mmHg 75%
06:00 +16°C° 0 mm 2 mps 746 mmHg 72%
07:00 +17°C° 0 mm 2 mps 747 mmHg 68%
08:00 +18°C° 0 mm 2 mps 747 mmHg 64%
09:00 +20°C° 0 mm 2 mps 747 mmHg 59%
10:00 +21°C° 0 mm 2 mps 747 mmHg 53%
11:00 +24°C° 0 mm 2 mps 747 mmHg 48%
12:00 +24°C° 0 mm 2 mps 747 mmHg 45%
13:00 +25°C° 0 mm 1 mps 747 mmHg 43%
14:00 +26°C° 0 mm 1 mps 746 mmHg 41%
15:00 +26°C° 0 mm 1 mps 746 mmHg 43%
16:00 +26°C° 0 mm 2 mps 746 mmHg 44%
17:00 +26°C° 0 mm 2 mps 745 mmHg 46%
18:00 +24°C° 0.1 mm 2 mps 745 mmHg 54%
19:00 +21°C° 0.1 mm 2 mps 745 mmHg 62%
20:00 +19°C° 0.1 mm 3 mps 745 mmHg 69%
21:00 +18°C° 0.7 mm 3 mps 745 mmHg 78%
22:00 +17°C° 0.7 mm 3 mps 745 mmHg 87%
23:00 +15°C° 0.7 mm 4 mps 745 mmHg 95%

5 August, Thursday

Time Temperature Precipitation Wind Pressure Humidity
00:00 +15°C° 0.1 mm 4 mps 744 mmHg 95%
01:00 +15°C° 0.1 mm 4 mps 744 mmHg 95%
02:00 +15°C° 0.1 mm 4 mps 744 mmHg 95%
03:00 +14°C° 0 mm 4 mps 743 mmHg 96%
04:00 +14°C° 0 mm 3 mps 743 mmHg 97%
05:00 +13°C° 0 mm 3 mps 742 mmHg 98%
06:00 +16°C° 0 mm 2 mps 742 mmHg 96%
07:00 +17°C° 0 mm 2 mps 742 mmHg 94%
08:00 +18°C° 0 mm 2 mps 742 mmHg 93%
09:00 +20°C° 0 mm 1 mps 742 mmHg 89%
10:00 +21°C° 0 mm 1 mps 742 mmHg 85%
11:00 +22°C° 0 mm 1 mps 741 mmHg 81%
12:00 +23°C° 0 mm 1 mps 741 mmHg 78%
13:00 +23°C° 0 mm 1 mps 741 mmHg 74%
14:00 +24°C° 0 mm 1 mps 741 mmHg 71%
15:00 +24°C° 0 mm 1 mps 741 mmHg 70%
16:00 +25°C° 0 mm 1 mps 740 mmHg 69%
17:00 +25°C° 0 mm 1 mps 740 mmHg 68%
18:00 +23°C° 0.6 mm 1 mps 740 mmHg 76%
19:00 +22°C° 0.6 mm 1 mps 740 mmHg 84%
20:00 +20°C° 0.6 mm 1 mps 739 mmHg 92%
21:00 +20°C° 0.1 mm 1 mps 739 mmHg 93%
22:00 +20°C° 0.1 mm 1 mps 739 mmHg 94%
23:00 +19°C° 0.1 mm 1 mps 738 mmHg 94%

6 August, Friday

Time Temperature Precipitation Wind Pressure Humidity
00:00 +18°C° 4.5 mm 2 mps 738 mmHg 96%
01:00 +17°C° 4.5 mm 3 mps 737 mmHg 97%
02:00 +17°C° 4.5 mm 3 mps 737 mmHg 98%
03:00 +17°C° 1.7 mm 4 mps 737 mmHg 98%
04:00 +15°C° 1.7 mm 4 mps 736 mmHg 97%
05:00 +15°C° 1.7 mm 5 mps 736 mmHg 97%
06:00 +15°C° 0.6 mm 4 mps 737 mmHg 95%
07:00 +15°C° 0.6 mm 4 mps 737 mmHg 94%
08:00 +15°C° 0.6 mm 4 mps 738 mmHg 92%
09:00 +18°C° 0 mm 4 mps 738 mmHg 83%
10:00 +19°C° 0 mm 5 mps 738 mmHg 74%
11:00 +21°C° 0 mm 5 mps 738 mmHg 64%
12:00 +22°C° 0 mm 5 mps 738 mmHg 62%
13:00 +22°C° 0 mm 5 mps 739 mmHg 60%
14:00 +22°C° 0 mm 5 mps 739 mmHg 58%
15:00 +22°C° 0 mm 5 mps 739 mmHg 59%
16:00 +22°C° 0 mm 4 mps 739 mmHg 59%
17:00 +22°C° 0 mm 3 mps 739 mmHg 60%
18:00 +21°C° 0 mm 3 mps 739 mmHg 64%
19:00 +20°C° 0 mm 3 mps 739 mmHg 68%
20:00 +19°C° 0 mm 3 mps 739 mmHg 72%
21:00 +18°C° 0 mm 3 mps 739 mmHg 73%
22:00 +18°C° 0 mm 3 mps 739 mmHg 74%
23:00 +18°C° 0 mm 3 mps 740 mmHg 75%
Show more